Hauptseite
METAR-TAF:

METAR-TAF

Flughäfen :

Meierwik

Glücksburg, Deutschland

Breite: 54-50N, Länge: 009-30E, Höhe: 27 m

Beobachtung

Neuester Wetterbericht von vor 37 Minuten, um 07:20 UTC
Wind 5 kt aus Südwest
Temperatur 11°C
Luftfeuchtigkeit 82%
Luftdruck 1011 hPa
Sichtweite 10 km oder mehr
Leicht bewölkt in der Höhe von 2500 ft, Towering cumulus.
Aufgelockert bewölkt in der Höhe von 4500 ft

METAR: ETGG 230720Z 23005KT 9999 FEW025TCU SCT045 11/08 Q1011 BLU+

Zeit: 09:57 (07:57 UTC)


TAF: fehlend

Wetterbeobachtungen und Prognosen von mehr als 4000 Flughäfen (METAR und TAF Bericht).

Die verfügbaren Stationen werden durch gelbe und rote Markierungen auf der Karte dargestellt.

Führen Sie die Maus auf sie, um den Namen der Station zu sehen.

Darauf klicken, um die Beobachtung von Wetterbeobachtungen und Prognosen zu sehen.

Um die Karte zu ändern : klicken Sie auf den grünen Tasten mit einem schwarzen Kreuz Zum Vergrößern, auf den grünen Button mit einem Gedankenstrich zu verkleinern, oder auf die grünen Pfeile für benachbarte Karten.


METAR-TAF: